Location: *
(47.6569°N, 7.4256°E)
Time: 17:07:47
(UTC+00:00)

Cosmos 1943 Rocket - Pass Details

Date: 14 December 2019
Orbit: 812 x 844 km, 71.0° (Epoch: 20 January)

Event Time Altitude Azimuth Distance (km) Brightness Sun altitude
Rises 16:38:33 0° 336° (NNW) 3,407 5.4 -9.6°
Reaches altitude 10° 16:41:16 10° 347° (NNW) 2,465 4.5 -10.0°
Maximum altitude 16:46:20 33° 50° (NE) 1,384 2.8 -10.8°
Drops below altitude 10° 16:51:20 10° 114° (ESE) 2,435 4.2 -11.6°
Sets 16:54:00 0° 124° (ESE) 3,359 5.0 -12.0°
